GW0518 Weather Reports


time (UTC)temp
C
wind
direction
speed
KPH
gust
KPH
rain 1hr
cm
rain 24hr
cm
rain mn
cm
humidity
%
barometer
mb
20260505065424 13 192 6.4 12.9 0.00 0.03 0.03 82 1004.6
20260505064705 13 180 6.4 22.5 0.00 0.03 0.03 81 1004.7
20260505064204 13 173 8.0 24.1 0.00 0.03 0.03 81 1004.6
20260505063922 14 173 8.0 24.1 0.03 0.03 0.03 81 1004.6
20260505063204 14 186 6.4 17.7 0.03 0.03 0.03 82 1004.6
20260505062704 14 186 4.8 16.1 0.03 0.03 0.03 82 1004.5
20260505062204 14 205 6.4 16.1 0.03 0.03 0.03 82 1004.5
20260505061930 15 180 6.4 14.5 0.03 0.03 0.03 82 1004.4
20260505061204 15 163 6.4 16.1 0.03 0.03 0.03 81 1004.4
20260505060704 15 179 8.0 16.1 0.03 0.03 0.03 81 1004.4
20260505060204 15 201 8.0 22.5 0.03 0.03 0.03 80 1004.4
20260505055704 15 191 8.0 22.5 0.03 0.03 0.03 79 1004.5
20260505055204 15 222 9.7 22.5 0.03 0.03 0.03 78 1004.6
20260505054705 15 211 11.3 22.5 0.03 0.03 0.03 77 1004.6
20260505054204 16 194 11.3 22.5 0.03 0.03 0.03 75 1004.6
20260505053704 16 211 9.7 27.4 0.00 0.00 0.00 75 1004.8
20260505053204 16 218 9.7 27.4 0.00 0.00 0.00 74 1004.5
20260505052704 16 202 9.7 20.9 0.00 0.00 0.00 74 1004.4
20260505052204 16 213 11.3 22.5 0.00 0.00 0.00 73 1004.6
20260505051704 15 207 11.3 25.7 0.00 0.00 0.00 72 1004.9
20260505051420 15 236 8.0 25.7 0.00 0.00 0.00 68 1004.9
20260505050704 15 263 6.4 16.1 0.00 0.00 0.00 66 1004.8
20260505050203 15 171 4.8 8.0 0.00 0.00 0.00 66 1004.9
20260505041703 14 184 6.4 14.5 0.00 0.00 0.00 67 1004.8
20260505041204 14 189 6.4 16.1 0.00 0.00 0.00 66 1004.7
20260505040706 13 224 6.4 16.1 0.00 0.00 0.00 66 1004.7
20260505040514 13 184 4.8 11.3 0.00 0.00 0.00 66 1004.6
20260505035703 13 200 4.8 11.3 0.00 0.00 0.00 66 1004.5
20260505035204 13 170 6.4 11.3 0.00 0.00 0.00 66 1004.5
20260505034923 13 190 6.4 11.3 0.00 0.00 0.00 66 1004.6
20260505034203 13 189 4.8 11.3 0.00 0.00 0.00 66 1004.5
20260505033704 13 191 4.8 11.3 0.00 0.00 0.00 65 1004.6
20260505033203 13 207 3.2 8.0 0.00 0.00 0.00 64 1004.6
20260505032704 13 207 4.8 11.3 0.00 0.00 0.00 64 1004.5
20260505032205 13 220 4.8 12.9 0.00 0.00 0.00 63 1004.5
20260505031703 13 175 4.8 14.5 0.00 0.00 0.00 63 1004.5
20260505031204 13 185 4.8 14.5 0.00 0.00 0.00 64 1004.6
20260505030703 13 207 4.8 9.7 0.00 0.00 0.00 63 1004.6
20260505030204 13 209 4.8 9.7 0.00 0.00 0.00 64 1004.6
20260505025705 13 211 4.8 8.0 0.00 0.00 0.00 63 1004.6
20260505025203 13 212 4.8 8.0 0.00 0.00 0.00 63 1004.5
20260505024920 13 213 3.2 8.0 0.00 0.00 0.00 63 1004.6
20260505024429 14 215 3.2 6.4 0.00 0.00 0.00 63 1004.6
20260505023703 14 213 3.2 6.4 0.00 0.00 0.00 62 1004.6
20260505023428 14 213 3.2 9.7 0.00 0.00 0.00 62 1004.6
20260505022704 14 211 3.2 9.7 0.00 0.00 0.00 62 1004.7
20260505022204 14 200 3.2 6.4 0.00 0.00 0.00 62 1004.7
20260505021203 14 199 4.8 9.7 0.00 0.00 0.00 63 1004.7
20260505020704 14 200 4.8 8.0 0.00 0.00 0.00 63 1004.7
20260505020203 14 176 4.8 11.3 0.00 0.00 0.00 63 1004.7
20260505015203 14 194 4.8 9.7 0.00 0.00 0.00 63 1004.7
20260505014703 14 199 3.2 6.4 0.00 0.00 0.00 63 1004.6
20260505014204 14 200 3.2 6.4 0.00 0.00 0.00 63 1004.5
20260505013704 14 200 3.2 8.0 0.00 0.00 0.00 63 1004.4
20260505013204 14 200 3.2 8.0 0.00 0.00 0.00 62 1004.5
20260505012704 14 202 3.2 6.4 0.00 0.00 0.00 62 1004.4
20260505012422 14 201 3.2 6.4 0.00 0.00 0.00 62 1004.5
20260505011704 14 201 3.2 6.4 0.00 0.00 0.00 62 1004.5
20260505011203 14 201 3.2 6.4 0.00 0.00 0.00 62 1004.4
20260505010704 15 202 1.6 4.8 0.00 0.00 0.00 62 1004.4
20260505010203 15 202 1.6 4.8 0.00 0.00 0.00 61 1004.3
20260505005704 15 202 1.6 4.8 0.00 0.00 0.00 61 1004.3
20260505005424 15 202 1.6 3.2 0.00 0.00 0.00 60 1004.3
20260505004703 15 202 1.6 3.2 0.00 0.00 0.00 61 1004.3
20260505004204 15 202 0.0 3.2 0.00 0.00 0.00 59 1004.2
20260505003705 16 202 0.0 1.6 0.00 0.00 0.00 59 1004.1
20260505003203 16 202 1.6 3.2 0.00 0.00 0.00 58 1004.1
20260505002704 16 202 0.0 3.2 0.00 0.00 0.00 57 1004.1
20260505002204 16 202 0.0 3.2 0.00 0.00 0.00 56 1004.1
20260505001922 16 202 0.0 3.2 0.00 0.00 0.00 56 1004.1
20260505001420 16 202 1.6 4.8 0.00 0.00 0.00 56 1004.0
20260505000701 17 202 1.6 4.8 0.00 0.00 0.00 55 1003.9
20260505000204 17 202 0.0 3.2 0.00 0.00 0.00 53 1004.0
20260504235701 17 202 0.0 3.2 0.00 0.00 0.00 51 1004.1
20260504235421 18 202 1.6 4.8 0.00 0.00 0.00 51 1004.1
20260504234701 18 202 1.6 4.8 0.00 0.00 0.00 50 1004.1
20260504234202 19 202 3.2 4.8 0.00 0.00 0.00 48 1004.1
20260504233701 20 202 3.2 4.8 0.00 0.00 0.00 47 1003.9
20260504233202 20 202 3.2 4.8 0.00 0.00 0.00 45 1004.0
20260504232701 21 202 3.2 6.4 0.00 0.00 0.00 44 1003.9
20260504232201 21 202 3.2 9.7 0.00 0.00 0.00 41 1003.9
20260504231702 21 200 3.2 9.7 0.00 0.00 0.00 41 1003.9
20260504231201 21 213 3.2 8.0 0.00 0.00 0.00 41 1003.9
20260504230701 21 215 3.2 11.3 0.00 0.00 0.00 40 1003.8
20260504230201 21 217 3.2 11.3 0.00 0.00 0.00 39 1003.8
20260504225701 22 225 4.8 16.1 0.00 0.00 0.00 40 1003.9
20260504225202 22 225 4.8 16.1 0.00 0.00 0.00 37 1003.9
20260504224700 22 249 4.8 12.9 0.00 0.00 0.00 39 1003.9
20260504223702 22 261 6.4 16.1 0.00 0.00 0.00 37 1004.1
20260504223201 22 231 6.4 16.1 0.00 0.00 0.00 37 1004.0
20260504222702 22 226 6.4 14.5 0.00 0.00 0.00 36 1004.2
20260504222201 22 248 6.4 17.7 0.00 0.00 0.00 37 1004.2
20260504221701 22 288 6.4 17.7 0.00 0.00 0.00 36 1004.2
20260504221201 22 242 4.8 14.5 0.00 0.00 0.00 37 1004.2
20260504220701 22 228 8.0 17.7 0.00 0.00 0.00 39 1004.2
20260504220429 22 221 8.0 17.7 0.00 0.00 0.00 39 1004.3
20260504215703 22 247 4.8 14.5 0.00 0.00 0.00 39 1004.2
20260504215428 22 227 6.4 14.5 0.00 0.00 0.00 39 1004.3
20260504214700 22 287 8.0 17.7 0.00 0.00 0.00 37 1004.3
20260504214200 22 247 8.0 17.7 0.00 0.00 0.00 36 1004.4
20260504213701 22 265 8.0 17.7 0.00 0.00 0.00 37 1004.4
20260504213202 22 223 8.0 17.7 0.00 0.00 0.00 38 1004.4
20260504212701 22 242 8.0 20.9 0.00 0.00 0.00 37 1004.3
20260504212200 22 276 6.4 20.9 0.00 0.00 0.00 39 1004.3
20260504211701 22 224 6.4 16.1 0.00 0.00 0.00 41 1004.4
20260504211201 22 266 6.4 16.1 0.00 0.00 0.00 39 1004.4
20260504210701 22 265 6.4 16.1 0.00 0.00 0.00 39 1004.5
20260504210201 22 207 8.0 22.5 0.00 0.00 0.00 44 1004.5
20260504205702 22 242 9.7 22.5 0.00 0.00 0.00 40 1004.6
20260504205201 22 209 8.0 22.5 0.00 0.00 0.00 40 1004.6
20260504204701 22 244 8.0 24.1 0.00 0.00 0.00 41 1004.7
20260504204200 22 199 9.7 24.1 0.00 0.00 0.00 42 1004.7
20260504203701 22 254 9.7 22.5 0.00 0.00 0.00 43 1004.9
20260504203201 22 263 8.0 22.5 0.00 0.00 0.00 42 1005.0
20260504202700 22 215 9.7 25.7 0.00 0.00 0.00 42 1004.9
20260504202202 22 252 11.3 25.7 0.00 0.00 0.00 42 1005.0
20260504201700 22 233 8.0 22.5 0.00 0.00 0.00 42 1004.9
20260504201201 21 232 9.7 24.1 0.00 0.00 0.00 42 1005.1
20260504200702 22 242 9.7 24.1 0.00 0.00 0.00 43 1005.1
20260504200201 22 253 11.3 25.7 0.00 0.00 0.00 42 1005.2
20260504195701 22 236 12.9 25.7 0.00 0.00 0.00 44 1005.2
20260504195200 22 239 11.3 38.6 0.00 0.00 0.00 44 1005.2
20260504194201 22 207 8.0 19.3 0.00 0.00 0.00 48 1005.5
20260504193701 22 217 9.7 20.9 0.00 0.00 0.00 45 1005.6
20260504193201 22 266 9.7 20.9 0.00 0.00 0.00 45 1005.6
20260504192704 21 225 8.0 19.3 0.00 0.00 0.00 44 1005.7
20260504192200 22 240 8.0 20.9 0.00 0.00 0.00 50 1005.7
20260504191701 21 271 9.7 24.1 0.00 0.00 0.00 46 1005.9
20260504191201 21 282 11.3 30.6 0.00 0.00 0.00 46 1005.9
20260504190701 21 291 12.9 30.6 0.00 0.00 0.00 45 1005.9
20260504190200 21 243 11.3 25.7 0.00 0.00 0.00 45 1006.0
20260504185924 21 261 12.9 27.4 0.00 0.00 0.00 46 1006.0
20260504185201 21 248 14.5 29.0 0.00 0.00 0.00 45 1006.1
20260504184926 21 219 12.9 29.0 0.00 0.00 0.00 48 1006.2
20260504184201 21 228 12.9 29.0 0.00 0.00 0.00 47 1006.2
20260504183701 21 242 11.3 22.5 0.00 0.00 0.00 48 1006.2
20260504183202 21 260 11.3 32.2 0.00 0.00 0.00 46 1006.3
20260504182701 21 256 12.9 32.2 0.00 0.00 0.00 48 1006.3
20260504182200 21 270 11.3 27.4 0.00 0.00 0.00 47 1006.3
20260504181701 21 208 12.9 30.6 0.00 0.00 0.00 48 1006.3
20260504181201 20 236 11.3 30.6 0.00 0.00 0.00 48 1006.4
20260504180701 20 240 14.5 30.6 0.00 0.00 0.00 49 1006.5
20260504180202 21 279 14.5 30.6 0.00 0.00 0.00 49 1006.4
20260504175701 20 231 11.3 27.4 0.00 0.00 0.00 49 1006.4
20260504175201 20 291 12.9 29.0 0.00 0.00 0.00 47 1006.5
20260504174701 20 248 12.9 29.0 0.00 0.00 0.00 51 1006.3
20260504174201 20 240 12.9 29.0 0.00 0.00 0.00 49 1006.3
20260504173702 20 226 11.3 29.0 0.00 0.00 0.00 49 1006.4
20260504172701 20 239 9.7 19.3 0.00 0.00 0.00 53 1006.4
20260504172201 20 229 11.3 25.7 0.00 0.00 0.00 52 1006.5
20260504171200 20 240 14.5 27.4 0.00 0.00 0.00 54 1006.6
20260504170700 19 167 14.5 33.8 0.00 0.00 0.00 51 1006.7
20260504170200 19 228 14.5 33.8 0.00 0.00 0.00 54 1006.7
20260504160201 18 257 9.7 29.0 0.00 0.00 0.00 55 1007.1
20260504150927 16 155 11.3 27.4 0.00 0.00 0.00 56 1007.4
20260504150203 16 235 11.3 27.4 0.00 0.00 0.00 55 1007.4
20260504141200 15 225 12.9 27.4 0.00 0.00 0.00 55 1007.9
20260504140701 15 196 12.9 25.7 0.00 0.00 0.00 55 1008.0
20260504140200 15 256 12.9 25.7 0.00 0.00 0.00 55 1007.9
20260504130701 12 219 8.0 30.6 0.00 0.00 0.00 60 1008.3
20260504130201 12 223 8.0 19.3 0.00 0.00 0.00 62 1008.4
20260504110700 9 193 6.4 16.1 0.00 0.00 0.00 68 1008.6
20260504110201 9 174 6.4 16.1 0.00 0.00 0.00 68 1008.6
20260504081701 8 200 3.2 8.0 0.00 0.00 0.00 68 1008.9
20260504081201 8 200 3.2 8.0 0.00 0.00 0.00 67 1008.9
20260504080700 8 200 3.2 9.7 0.00 0.00 0.00 66 1009.0
20260504080201 8 200 3.2 9.7 0.00 0.00 0.00 65 1009.1
20260504070201 10 217 4.8 12.9 0.00 0.00 0.00 61 1009.1